When you browse on this site, cookies collect data to enhance your experience and personalize the content and advertising you see.
Visit our Privacy Policy to learn more. By continuing to use the site, you agree to this use of cookies and data.
  • In Latvia
  • List of Countries
  • For 7 days
  • Water Temperature
  • Satellite Maps
  • Weather Map
  • Weather Widgets
  • user-avatar
    Login

    Hourly Weather Exeter

    Today, 23 January, Wednesday

    Time Temperature Precipitation Wind Pressure Humidity
    00:00 0°C° 0 mm 4 mps 741 mmHg 88%
    01:00 0°C° 0.1 mm 4 mps 741 mmHg 88%
    02:00 0°C° 0.1 mm 5 mps 741 mmHg 87%
    03:00 0°C° 0.1 mm 5 mps 741 mmHg 87%
    04:00 0°C° 0 mm 5 mps 742 mmHg 86%
    05:00 0°C° 0 mm 5 mps 742 mmHg 85%
    06:00 -1°C° 0 mm 4 mps 743 mmHg 87%
    07:00 -1°C° 0 mm 4 mps 743 mmHg 86%
    08:00 0°C° 0 mm 4 mps 744 mmHg 85%
    09:00 0°C° 0 mm 4 mps 745 mmHg 84%
    10:00 +1°C° 0 mm 5 mps 745 mmHg 80%
    11:00 +2°C° 0 mm 6 mps 746 mmHg 76%
    12:00 +3°C° 0 mm 6 mps 746 mmHg 73%
    13:00 +3°C° 0 mm 5 mps 746 mmHg 73%
    14:00 +3°C° 0 mm 5 mps 746 mmHg 74%
    15:00 +4°C° 0 mm 4 mps 746 mmHg 74%
    16:00 +3°C° 0 mm 4 mps 747 mmHg 77%
    17:00 +2°C° 0 mm 3 mps 747 mmHg 81%
    18:00 +2°C° 0 mm 2 mps 747 mmHg 84%
    19:00 +2°C° 0 mm 2 mps 748 mmHg 85%
    20:00 +1°C° 0 mm 2 mps 748 mmHg 86%
    21:00 +2°C° 0 mm 1 mps 748 mmHg 86%
    22:00 +2°C° 0 mm 1 mps 749 mmHg 87%
    23:00 +2°C° 0 mm 1 mps 749 mmHg 87%

    Tomorrow, 24 January, Thursday

    Time Temperature Precipitation Wind Pressure Humidity
    00:00 +2°C° 0 mm 1 mps 749 mmHg 88%
    01:00 +2°C° 0 mm 1 mps 749 mmHg 88%
    02:00 +2°C° 0 mm 1 mps 749 mmHg 89%
    03:00 +2°C° 0 mm 1 mps 750 mmHg 89%
    04:00 +2°C° 0 mm 1 mps 750 mmHg 89%
    05:00 +3°C° 0 mm 1 mps 750 mmHg 90%
    06:00 +2°C° 0 mm 2 mps 750 mmHg 90%
    07:00 +3°C° 0 mm 2 mps 750 mmHg 91%
    08:00 +4°C° 0 mm 2 mps 750 mmHg 91%
    09:00 +3°C° 0 mm 3 mps 751 mmHg 92%
    10:00 +4°C° 0.2 mm 3 mps 751 mmHg 92%
    11:00 +5°C° 0.2 mm 4 mps 751 mmHg 92%
    12:00 +6°C° 0.2 mm 4 mps 751 mmHg 92%
    13:00 +7°C° 0.3 mm 4 mps 751 mmHg 92%
    14:00 +7°C° 0.3 mm 4 mps 751 mmHg 93%
    15:00 +8°C° 0.3 mm 4 mps 751 mmHg 93%
    16:00 +8°C° 0.1 mm 5 mps 751 mmHg 94%
    17:00 +8°C° 0.1 mm 5 mps 751 mmHg 94%
    18:00 +8°C° 0.1 mm 5 mps 751 mmHg 94%
    19:00 +8°C° 0.2 mm 5 mps 751 mmHg 94%
    20:00 +8°C° 0.2 mm 5 mps 752 mmHg 94%
    21:00 +8°C° 0.2 mm 5 mps 752 mmHg 94%
    22:00 +8°C° 0.1 mm 4 mps 753 mmHg 95%
    23:00 +8°C° 0.1 mm 4 mps 753 mmHg 95%

    Day after tomorrow, 25 January, Friday

    Time Temperature Precipitation Wind Pressure Humidity
    00:00 +9°C° 0.1 mm 3 mps 753 mmHg 95%
    01:00 +9°C° 0.1 mm 3 mps 754 mmHg 95%
    02:00 +9°C° 0.1 mm 3 mps 754 mmHg 95%
    03:00 +9°C° 0.1 mm 3 mps 754 mmHg 95%
    04:00 +9°C° 0 mm 3 mps 754 mmHg 95%
    05:00 +9°C° 0 mm 3 mps 754 mmHg 95%
    06:00 +8°C° 0 mm 4 mps 755 mmHg 95%
    07:00 +8°C° 0 mm 4 mps 755 mmHg 95%
    08:00 +8°C° 0 mm 4 mps 755 mmHg 94%
    09:00 +8°C° 0 mm 4 mps 755 mmHg 94%
    10:00 +10°C° 0 mm 4 mps 756 mmHg 91%
    11:00 +9°C° 0 mm 5 mps 756 mmHg 87%
    12:00 +10°C° 0 mm 6 mps 756 mmHg 84%
    13:00 +10°C° 0 mm 5 mps 756 mmHg 84%
    14:00 +10°C° 0 mm 5 mps 756 mmHg 83%
    15:00 +10°C° 0 mm 5 mps 756 mmHg 82%
    16:00 +10°C° 0 mm 4 mps 756 mmHg 86%
    17:00 +8°C° 0 mm 4 mps 756 mmHg 90%
    18:00 +6°C° 0 mm 4 mps 756 mmHg 94%
    19:00 +6°C° 0 mm 4 mps 756 mmHg 93%
    20:00 +6°C° 0 mm 4 mps 756 mmHg 93%
    21:00 +5°C° 0 mm 4 mps 756 mmHg 93%
    22:00 +5°C° 0 mm 4 mps 756 mmHg 93%
    23:00 +5°C° 0 mm 4 mps 756 mmHg 93%

    26 January, Saturday

    Time Temperature Precipitation Wind Pressure Humidity
    00:00 +5°C° 0 mm 4 mps 756 mmHg 93%
    01:00 +5°C° 0 mm 4 mps 755 mmHg 92%
    02:00 +5°C° 0 mm 4 mps 755 mmHg 91%
    03:00 +5°C° 0 mm 4 mps 754 mmHg 90%
    04:00 +5°C° 0 mm 4 mps 753 mmHg 89%
    05:00 +6°C° 0 mm 5 mps 753 mmHg 88%
    06:00 +6°C° 0 mm 5 mps 752 mmHg 87%
    07:00 +6°C° 0 mm 5 mps 751 mmHg 87%
    08:00 +7°C° 0 mm 6 mps 751 mmHg 87%
    09:00 +7°C° 0 mm 6 mps 750 mmHg 87%
    10:00 +6°C° 0 mm 7 mps 749 mmHg 85%
    11:00 +7°C° 0 mm 8 mps 748 mmHg 83%
    12:00 +7°C° 0 mm 9 mps 747 mmHg 82%
    13:00 +7°C° 1.1 mm 8 mps 746 mmHg 84%
    14:00 +6°C° 1.1 mm 8 mps 745 mmHg 85%
    15:00 +5°C° 1.1 mm 8 mps 744 mmHg 87%
    16:00 +5°C° 0.1 mm 8 mps 744 mmHg 83%
    17:00 +4°C° 0.1 mm 8 mps 743 mmHg 79%
    18:00 +3°C° 0.1 mm 9 mps 743 mmHg 76%
    19:00 +3°C° 0 mm 9 mps 742 mmHg 76%
    20:00 +3°C° 0 mm 10 mps 741 mmHg 77%
    21:00 +5°C° 0 mm 10 mps 741 mmHg 78%
    22:00 +4°C° 0.2 mm 11 mps 740 mmHg 77%
    23:00 +4°C° 0.2 mm 11 mps 740 mmHg 75%

    27 January, Sunday

    Time Temperature Precipitation Wind Pressure Humidity
    00:00 +4°C° 0.2 mm 12 mps 740 mmHg 74%
    01:00 +3°C° 0 mm 12 mps 740 mmHg 74%
    02:00 +3°C° 0 mm 12 mps 740 mmHg 74%
    03:00 +2°C° 0 mm 12 mps 740 mmHg 74%
    04:00 +2°C° 0 mm 12 mps 740 mmHg 73%
    05:00 +2°C° 0 mm 11 mps 741 mmHg 72%
    06:00 +2°C° 0 mm 11 mps 741 mmHg 71%
    07:00 +2°C° 0.1 mm 11 mps 742 mmHg 69%
    08:00 +2°C° 0.1 mm 12 mps 742 mmHg 68%
    09:00 +2°C° 0.1 mm 12 mps 742 mmHg 66%
    10:00 +2°C° 0.2 mm 12 mps 743 mmHg 67%
    11:00 +1°C° 0.2 mm 13 mps 743 mmHg 69%
    12:00 +1°C° 0.2 mm 14 mps 743 mmHg 70%
    13:00 +1°C° 0.1 mm 13 mps 743 mmHg 70%
    14:00 +1°C° 0.1 mm 13 mps 744 mmHg 69%
    15:00 +1°C° 0.1 mm 13 mps 744 mmHg 69%
    16:00 +2°C° 0.1 mm 12 mps 744 mmHg 69%
    17:00 0°C° 0.1 mm 12 mps 745 mmHg 69%
    18:00 +1°C° 0.1 mm 11 mps 745 mmHg 68%
    19:00 +1°C° 0 mm 11 mps 746 mmHg 69%
    20:00 +1°C° 0 mm 10 mps 746 mmHg 69%
    21:00 +1°C° 0 mm 10 mps 747 mmHg 70%
    22:00 +1°C° 0 mm 9 mps 747 mmHg 70%
    23:00 +1°C° 0 mm 9 mps 747 mmHg 71%

    28 January, Monday

    Time Temperature Precipitation Wind Pressure Humidity
    00:00 0°C° 0 mm 9 mps 747 mmHg 71%
    01:00 0°C° 0 mm 9 mps 747 mmHg 72%
    02:00 0°C° 0 mm 9 mps 747 mmHg 72%
    03:00 0°C° 0 mm 9 mps 747 mmHg 72%
    04:00 0°C° 0 mm 9 mps 747 mmHg 72%
    05:00 0°C° 0 mm 9 mps 748 mmHg 73%
    06:00 0°C° 0 mm 10 mps 748 mmHg 73%
    07:00 0°C° 0 mm 10 mps 748 mmHg 73%
    08:00 0°C° 0 mm 10 mps 749 mmHg 73%
    09:00 +1°C° 0 mm 10 mps 749 mmHg 73%
    10:00 +1°C° 0 mm 10 mps 749 mmHg 72%
    11:00 +2°C° 0 mm 11 mps 750 mmHg 70%
    12:00 +3°C° 0 mm 11 mps 750 mmHg 69%
    13:00 +3°C° 0 mm 11 mps 750 mmHg 69%
    14:00 +2°C° 0 mm 10 mps 750 mmHg 69%
    15:00 +2°C° 0 mm 10 mps 751 mmHg 69%
    16:00 +2°C° 0 mm 10 mps 751 mmHg 71%
    17:00 +1°C° 0 mm 9 mps 751 mmHg 73%
    18:00 +1°C° 0 mm 8 mps 752 mmHg 75%
    19:00 +2°C° 0 mm 7 mps 752 mmHg 77%
    20:00 +2°C° 0 mm 6 mps 753 mmHg 79%
    21:00 +2°C° 0 mm 6 mps 753 mmHg 82%
    22:00 +1°C° 0 mm 5 mps 753 mmHg 84%
    23:00 +1°C° 0 mm 4 mps 753 mmHg 86%
    Show more